Location: Unspecified
(42.9300°N, 71.1866°W)
Time: 16:55:54
(UTC-04:00)

Cosmos 1674 - Visible Passes

Search period start: 24 April 2017 00:00
Search period end: 04 May 2017 00:00
Orbit: 499 x 522 km, 82.5° (Epoch: 23 April)

Date Brightness Start Highest point End Pass type
(mag) Time Alt. Az. Time Alt. Az. Time Alt. Az.
26 Apr 3.7 05:13:20 10° S 05:16:59 50° E 05:20:42 10° NNE visible
27 Apr 4.2 04:57:00 10° SSE 05:00:32 38° E 05:04:06 10° NNE visible
28 Apr 4.7 04:40:44 10° SSE 04:44:04 30° E 04:47:27 10° NNE visible
29 Apr 5.0 04:24:31 10° SE 04:27:37 24° E 04:30:45 10° NE visible
30 Apr 5.4 04:08:25 10° SE 04:11:10 19° E 04:13:57 10° NE visible
01 May 5.5 03:52:26 10° SE 03:54:44 16° E 03:57:03 10° NE visible
02 May 5.7 03:36:41 10° ESE 03:38:18 12° E 03:39:56 10° ENE visible
03 May 2.8 04:53:10 10° SSW 04:56:55 57° W 05:00:44 10° N visible
